#timestamp,LO_Frequency,Hit,StdDev 
1627732815.0,286047004.3,Y
1627732815.9,286047004.3,P
1627732835.8,286047000.5,N
1627732855.6,286047001.0,N
1627732875.4,286047000.4,N
1627732895.3,286047000.3,N
1627732915.1,286047000.6,N
1627732935.8,286046998.3,N
1627732955.7,286046998.6,N
1627732975.5,286046998.7,N
1627732995.4,286046998.4,N
1627733015.2,286047000.8,N
1627733035.0,286047000.8,N
1627733035.9,286047000.8,N
1627733055.8,286047000.7,N
1627733075.6,286046998.6,N
1627733095.4,286046998.7,N
1627733115.3,286046998.7,N
1627733135.1,286046998.8,N
1627733155.9,286046999.2,N
1627733175.7,286046998.9,N
1627733195.5,286047001.1,N
1627733215.4,286047000.8,N
1627733235.2,286047000.6,N
1627733255.0,286047000.9,N
1627733255.9,286047000.9,N
1627733275.8,286047000.8,N
1627733295.6,286046998.5,N
1627733315.5,286046998.6,N
1627733335.3,286047001.0,N
1627733355.1,286046998.8,N
1627733375.9,286046998.9,N
1627733395.7,286046999.3,N
1627733415.5,286046997.3,N
1627733435.4,286046997.1,N
1627733455.2,286046999.5,N
1627733475.1,286046999.2,N
1627733476.0,286046999.2,N
1627733495.8,286046998.4,N
1627733515.6,286046998.7,N
1627733535.5,286046999.6,N
1627733555.3,286046997.4,N
1627733575.1,286046996.9,N
1627733595.9,286046996.9,N
1627733615.7,286046996.7,N
1627733635.6,286046997.1,N
1627733655.4,286046997.2,N
1627733675.2,286046996.9,N
1627733695.1,286046996.8,N
1627733696.0,286046996.8,N
1627733715.8,286046997.6,N
1627733735.6,286046995.6,N
1627733755.5,286046995.8,N
1627733775.3,286046995.0,Y
1627733795.2,286046997.5,P
1627733815.9,286046997.5,P
1627733835.7,286046997.8,P
1627733855.6,286046996.7,Y
1627733875.4,286047000.6,P
1627733895.3,286046999.8,N
1627733915.1,286046999.7,N
1627733916.0,286046999.7,N
1627733935.8,286047000.0,N
1627733955.7,286047002.7,Y
1627733975.5,286047002.4,P
1627733995.3,286047002.6,N
1627734015.2,286047000.2,N
1627734035.0,286047002.6,N
1627734035.9,286047002.6,N
1627734055.8,286047002.1,N
1627734075.6,286047002.5,N
1627734095.4,286047002.4,N
1627734115.3,286047002.5,N
1627734135.1,286047001.0,N
1627734155.8,286047000.2,N
1627734175.7,286047000.3,N
1627734195.5,286047002.0,N
1627734215.4,286047002.6,N
1627734235.2,286047002.1,N
1627734255.0,286047002.3,N
1627734255.9,286047002.3,N
1627734275.8,286047002.3,N
1627734295.6,286047001.8,N
1627734315.5,286047001.7,N
1627734335.3,286047002.0,N
1627734355.1,286047001.6,N
1627734375.9,286047004.0,Y
1627734395.7,286046999.8,P
1627734415.6,286047002.3,N
1627734435.4,286047000.3,N
1627734455.2,286046999.9,N
1627734475.1,286047000.6,N
1627734476.0,286047000.6,N
1627734495.8,286047000.7,N
1627734515.6,286046998.3,N
1627734535.5,286046998.8,N
1627734555.3,286047000.5,N
1627734575.2,286047001.1,N
1627734595.0,286047001.1,N
1627734595.9,286047001.1,N
1627734615.7,286046998.8,N
1627734635.6,286046996.9,N
1627734655.4,286046995.2,Y
1627734675.3,286046995.0,P
1627734695.1,286046995.5,N
1627734715.8,286046995.3,N
1627734735.7,286046995.9,N
1627734755.5,286046993.7,Y
1627734775.4,286046997.1,P
1627734795.2,286046997.1,P
1627734815.0,286046998.9,P
1627734815.9,286046998.9,N
1627734835.8,286046997.0,N
1627734855.6,286046998.5,N
1627734875.4,286046998.2,N
1627734895.3,286046998.7,N
1627734915.1,286046998.6,N
1627734935.9,286046998.5,N
1627734955.7,286047000.8,N
1627734975.5,286047000.5,N
1627734995.4,286047002.7,N
1627735015.2,286047002.4,N
1627735035.0,286046999.8,N
1627735035.9,286046999.8,N
1627735055.8,286047000.5,N
1627735075.6,286047000.2,N
1627735095.5,286047000.0,N
1627735115.3,286047002.6,N
1627735135.1,286047002.2,N
1627735155.9,286047001.5,N
1627735175.7,286047001.6,N
1627735195.5,286047001.7,N
1627735215.4,286047003.5,N
1627735235.2,286047003.6,N
1627735255.1,286047002.9,N
1627735256.0,286047002.9,N
1627735275.8,286047003.2,N
1627735295.6,286047005.7,N
1627735315.5,286047005.9,N
1627735335.3,286047005.3,N
1627735355.1,286047004.8,N
1627735375.9,286047004.9,N
1627735395.7,286047007.6,Y
1627735415.6,286047004.8,P
1627735435.4,286047003.2,N
1627735455.2,286047003.2,N
1627735475.1,286047004.2,Y
1627735476.0,286047004.2,P
1627735495.8,286046998.1,P
1627735515.7,286046998.1,N
1627735535.5,286046998.6,N
1627735555.3,286046998.1,N
1627735575.2,286046998.4,N
1627735595.9,286046996.6,N
1627735615.7,286046996.9,N
1627735635.6,286046996.9,N
1627735655.4,286046997.1,N
1627735675.2,286046997.2,N
1627735695.1,286046997.3,N
1627735696.0,286046997.3,N
1627735715.8,286046997.3,N
1627735735.7,286046997.9,N
1627735755.5,286046997.4,N
1627735775.3,286046997.2,N
1627735795.2,286046997.3,N
1627735815.0,286046997.4,N
1627735815.9,286046997.4,N
1627735835.8,286046997.7,N
1627735855.6,286046997.5,N
1627735875.4,286046995.3,N
1627735895.3,286046993.3,Y
1627735915.1,286046997.8,P
1627735935.9,286046995.0,P
1627735955.7,286046995.2,P
1627735975.5,286046995.0,Y
1627735995.4,286047000.5,P
1627736015.2,286046999.9,N
1627736035.0,286046999.7,N
1627736035.9,286046999.7,N
1627736055.8,286047000.3,N
1627736075.6,286047002.8,N
1627736095.5,286047002.0,N
1627736115.3,286047001.7,N
1627736135.1,286047001.3,N
1627736155.9,286047002.2,N
1627736175.7,286047002.1,N
1627736195.5,286047004.4,N
1627736215.4,286047004.3,N
1627736235.2,286047001.7,N
1627736255.1,286047001.9,N
1627736256.0,286047001.9,N
1627736275.8,286047001.6,N
1627736295.6,286047001.7,N
1627736315.5,286047001.4,N
1627736335.3,286047001.4,N
1627736355.1,286047001.7,N
1627736375.9,286047004.0,N
1627736395.7,286047004.3,N
